Vertical_Velocity
-2 -2 -0 -1 1 -1 0 1 -0 -4 1 1 1 -1 1 1 -0 2 2 0 -2 -1 -0 -0 -1 1 -5 0 -0 -13 22 9 -1 -4 6 5 -1 10 -14 10 14 3 2
0 -2 -2 -1 -0 1 -2 0 1 -1 0 -0 -0 2 -1 -1 -2 -2 -2 -0 -1 2 3 -2 3 5 4 0 0 0 -14 21 -7 13 13 13 1 -0 19 -3 5 1 2
1 -1 0 -2 -2 -1 -2 1 1 0 -1 -3 -2 -1 -2 -1 -0 -3 -5 -1 -3 -1 3 0 -3 1 -3 -4 -4 3 -7 -12 12 2 10 3 1 5 -2 0 7 -2 -0
0 -1 -0 -2 2 -1 -0 -1 -3 -0 0 1 2 -1 -2 -2 -2 -3 -4 0 -4 -3 -3 -3 -4 -2 -4 -3 -6 3 0 0 -6 2 -9 -6 -0 -1 2 3 0 -4 2
-1 -2 0 1 -2 -1 -1 1 -1 -3 2 2 -0 -2 -1 -1 -0 -2 -1 -2 -4 -2 -2 -1 -2 0 2 3 -5 3 15 1 -2 4 -1 -5 3 4 1 -0 -5 -1 -2
-1 0 0 -2 2 -1 -1 2 -1 -1 2 0 -1 -2 -1 -1 -3 -2 -3 -2 -2 -2 -2 -2 -3 -4 -2 -4 -2 13 3 3 1 1 0 4 6 -0 2 1 2 1 2
0 1 -0 -1 -1 -0 -2 -1 -1 0 0 -1 -0 -0 -1 1 -0 -0 1 -1 -3 -3 -5 -2 -4 -3 -5 -0 0 -2 -0 -0 -1 -1 2 3 -0 5 -0 -3 1 -0 -1
-5 -2 0 -2 0 -3 -3 -1 -0 -2 -0 2 -0 -2 -0 -2 -3 -5 -6 -6 -5 -3 -2 -2 -2 -2 -2 -1 -3 -3 -3 -0 0 1 1 0 -0 -1 -2 1 1 -0 1
3 3 -1 -2 -2 -1 0 -2 -3 -1 0 -2 -2 -1 -0 -3 -1 -2 -3 -2 -1 -1 0 0 -1 -1 -1 -2 -1 0 1 0 0 1 -1 -0 2 1 0 2 -1 1 -1
2 1 -5 -5 2 -2 -1 -2 -1 -1 -2 -1 -1 -1 -0 -2 -1 -2 -2 -2 -0 -0 -0 -1 0 0 -1 -1 -1 0 -0 1 0 2 3 2 1 -0 -1 1 0 -0 0
-0 -5 -2 0 1 -1 -2 -1 -0 -1 -1 -1 -1 -2 -0 -2 -1 -1 -2 -1 -0 0 0 0 -1 -2 0 0 1 0 1 2 -0 1 0 0 0 1 1 0 0 0 1
1 -1 -0 -0 -1 -0 -0 -0 -1 -2 -1 -2 -3 -3 -0 -1 -2 -1 -2 -2 -1 -2 -2 -0 0 1 -0 -1 -1 -1 -1 -0 0 -0 -0 -0 0 -0 -0 -0 0 1 0
-0 -1 -0 0 0 0 0 -0 -1 -1 -0 -2 -2 -1 -1 -2 -0 -1 -1 -2 -2 -2 -3 -3 -4 -2 -1 -1 -1 -1 -1 -1 -1 -0 -0 0 1 1 1 0 -0 -1 -1
-1 1 0 0 -0 -1 0 -0 -1 1 -0 -1 -1 -1 -1 -0 -1 -1 -1 -1 -1 -1 -2 -1 0 1 1 1 -1 -1 -2 -2 -1 -0 -0 1 1 1 1 1 0 -1 -1
0 1 1 -1 1 0 -0 -0 0 1 -0 -2 -2 -1 0 0 0 0 -0 -2 -1 -2 -2 -1 -1 -1 -1 -1 -1 -1 -1 -1 -0 0 1 1 -0 0 -1 -0 -0 0 -0
1 0 0 -2 1 0 0 -1 0 1 -0 -1 -1 -1 -1 0 -1 -2 -2 -2 -2 -2 -2 -1 -1 -1 -1 -2 -2 -2 -2 -2 -2 -0 -1 1 1 0 1 0 -1 -1 -0
1 -0 -0 -0 0 -0 1 2 1 -0 -1 -1 -1 -0 -1 -0 0 -1 -2 -2 -2 -1 -1 -1 -1 -2 -2 -2 -2 -3 -3 -2 -1 -1 -0 -0 -0 0 -1 0 -1 -1 1
-1 -1 -0 -0 -0 1 2 2 0 -1 -1 -0 -0 -0 -1 -2 -1 -1 0 -0 -2 -1 -1 -1 -1 -1 -2 -2 -2 -1 -0 -1 -0 -1 -0 0 0 -1 1 1 1 -0 -2
-1 0 0 -1 0 0 1 0 -0 -1 -0 1 1 1 1 0 -0 -0 -1 -1 -1 -1 -2 -1 -1 -1 -1 -1 -0 -1 -1 -0 -0 -0 0 0 0 -1 2 -1 -1 -2 -6
-2 3 0 -0 0 0 1 0 0 0 1 1 0 -1 -1 -1 -1 -1 -1 0 -0 -0 -0 -1 -1 -1 -1 -0 -1 -1 -1 -0 -1 -0 -1 -1 -2 -2 -1 -2 -2 -3 1
2 -2 5 1 0 1 2 1 1 0 1 0 -0 -1 -0 0 -1 -1 -1 -1 -1 -1 -1 -1 -1 -1 -1 -1 -1 -1 0 0 -1 -1 -0 -1 -1 0 -2 -2 -2 -2 -2
-2 -1 1 2 2 0 1 1 1 1 1 1 -2 -2 -1 -1 -1 -2 -1 -1 -1 -2 -1 -1 -1 -0 0 0 -1 -0 0 -0 -1 -1 -1 -1 -2 -1 -2 -1 0 0 -0
4 2 1 2 3 2 0 -0 1 1 1 -1 -1 -1 -1 -1 -1 -0 -0 -1 -1 -1 -1 -1 -0 -1 -1 -1 -1 -0 1 -0 -1 0 -1 0 0 -0 -0 -0 -1 0 0
-0 0 2 4 4 2 1 0 1 2 2 -2 -1 -0 -1 -2 -1 -1 -1 -1 -1 -1 -1 -1 0 1 0 0 0 -1 -1 -0 -1 -1 -2 -2 -1 1 -1 -1 1 1 -1
1 3 4 4 4 4 0 0 2 1 1 -1 -1 -0 -1 -1 -1 -1 -1 -1 -0 0 -1 -0 -0 -1 -1 0 0 -0 -1 -1 -1 -2 -1 -1 1 2 1 0 3 1 1
4 3 2 3 5 1 -1 2 3 2 1 -1 0 0 -0 -1 -1 -1 -1 -1 -1 0 1 -0 -1 -1 -1 0 -1 -1 -1 -0 -1 1 -3 -3 -4 -3 -5 -4 -1 -4 -0
Height
3072 3071 3070 3069 3068 3068 3069 3068 3067 3067 3067 3065 3064 3063 3062 3061 3060 3059 3058 3057 3055 3055 3053 3052 3051 3050 3049 3048 3047 3046 3040 3044 3043 3043 3043 3044 3043 3041 3043 3041 3042 3042 3042
3066 3065 3064 3063 3062 3063 3063 3062 3060 3060 3059 3058 3057 3056 3056 3054 3053 3052 3050 3048 3047 3046 3045 3044 3043 3040 3038 3037 3036 3036 3034 3029 3033 3032 3031 3029 3032 3032 3034 3032 3032 3033 3031
3060 3059 3059 3057 3057 3056 3056 3054 3052 3052 3052 3051 3050 3049 3049 3048 3047 3045 3043 3042 3041 3038 3037 3035 3033 3032 3030 3025 3026 3024 3025 3025 3023 3024 3021 3023 3024 3021 3025 3024 3023 3021 3019
3053 3053 3053 3052 3051 3050 3048 3047 3047 3047 3046 3045 3044 3043 3043 3043 3041 3039 3037 3035 3034 3031 3028 3027 3026 3024 3022 3020 3017 3015 3018 3018 3018 3017 3017 3012 3017 3016 3014 3014 3014 3011 3012
3046 3046 3047 3045 3045 3044 3043 3042 3042 3041 3040 3039 3039 3039 3038 3037 3035 3033 3031 3029 3027 3023 3020 3020 3019 3017 3014 3011 3010 3009 3007 3011 3011 3009 3008 3007 3008 3006 3004 3005 3005 3004 3005
3042 3041 3041 3041 3040 3040 3039 3038 3037 3036 3036 3036 3035 3034 3033 3031 3029 3027 3024 3023 3021 3018 3015 3013 3012 3010 3008 3003 3003 3002 3004 3004 3003 3002 3002 3001 2999 2999 2997 2995 2996 2995 2995
3039 3038 3038 3037 3036 3037 3037 3035 3034 3033 3032 3032 3031 3031 3029 3028 3025 3022 3018 3016 3015 3013 3010 3007 3005 3004 3004 3001 3000 3000 2999 2997 2997 2996 2994 2994 2991 2990 2989 2987 2985 2985 2983
3037 3035 3034 3035 3035 3035 3033 3031 3030 3029 3029 3029 3028 3027 3026 3025 3021 3018 3016 3014 3013 3011 3007 3004 3003 3002 3000 2998 2997 2995 2994 2992 2990 2989 2986 2984 2983 2980 2978 2977 2975 2972 2970
3037 3036 3037 3037 3035 3033 3031 3029 3028 3028 3029 3028 3027 3026 3024 3022 3020 3019 3017 3014 3011 3008 3006 3004 3002 2999 2997 2995 2992 2990 2987 2985 2983 2980 2978 2975 2973 2969 2966 2966 2964 2963 2962
3038 3039 3038 3035 3034 3033 3031 3031 3031 3030 3028 3027 3026 3025 3023 3021 3019 3018 3015 3012 3008 3006 3004 3001 2998 2995 2992 2989 2986 2982 2979 2977 2974 2972 2969 2966 2963 2959 2958 2958 2957 2958 2958
3038 3038 3035 3034 3033 3033 3032 3032 3031 3029 3028 3028 3026 3023 3021 3019 3018 3015 3012 3010 3007 3004 3001 2997 2993 2989 2985 2981 2978 2974 2971 2968 2964 2961 2959 2956 2955 2954 2953 2953 2953 2953 2953
3036 3034 3033 3033 3033 3032 3032 3031 3030 3029 3028 3026 3023 3021 3019 3018 3016 3012 3010 3007 3004 3000 2996 2992 2988 2984 2979 2975 2971 2967 2963 2960 2957 2954 2952 2951 2950 2950 2949 2949 2949 2948 2947
3033 3033 3032 3032 3032 3031 3031 3030 3029 3028 3026 3024 3021 3020 3017 3015 3012 3009 3006 3003 3000 2996 2992 2987 2983 2978 2974 2970 2965 2961 2957 2953 2950 2948 2947 2946 2946 2945 2944 2944 2944 2943 2942
3031 3031 3031 3030 3030 3029 3029 3028 3027 3025 3024 3022 3020 3017 3014 3012 3009 3005 3002 2998 2994 2990 2986 2982 2977 2972 2968 2964 2959 2955 2951 2948 2945 2944 2943 2942 2941 2941 2940 2939 2938 2936 2935
3028 3028 3028 3028 3027 3027 3026 3025 3024 3022 3020 3019 3017 3015 3011 3008 3004 3001 2997 2993 2989 2985 2980 2975 2971 2966 2962 2957 2953 2949 2946 2943 2941 2940 2939 2938 2937 2935 2933 2932 2931 2929 2928
3025 3025 3025 3025 3023 3023 3023 3022 3021 3019 3017 3015 3013 3010 3007 3003 2999 2996 2991 2987 2983 2979 2974 2970 2965 2960 2956 2951 2947 2944 2941 2939 2937 2935 2934 2933 2931 2929 2928 2925 2923 2921 2919
3021 3022 3021 3021 3020 3019 3019 3018 3017 3015 3013 3011 3009 3006 3002 2998 2994 2990 2986 2981 2977 2973 2968 2964 2960 2956 2951 2947 2944 2940 2937 2935 2934 2932 2930 2928 2926 2924 2922 2919 2916 2913 2911
3017 3017 3017 3017 3016 3016 3015 3014 3013 3011 3009 3007 3004 3001 2997 2994 2989 2985 2980 2976 2972 2967 2963 2959 2955 2951 2947 2943 2940 2937 2934 2932 2930 2928 2925 2923 2920 2917 2914 2911 2907 2904 2901
3012 3012 3012 3012 3011 3011 3010 3009 3008 3007 3005 3003 3000 2997 2993 2989 2984 2980 2975 2971 2967 2963 2959 2955 2950 2946 2942 2939 2935 2932 2929 2926 2924 2922 2919 2916 2912 2909 2906 2902 2899 2895 2891
3006 3006 3006 3006 3005 3005 3005 3004 3003 3002 3000 2997 2995 2992 2989 2984 2979 2975 2971 2967 2963 2959 2954 2950 2945 2942 2938 2934 2931 2927 2924 2921 2917 2914 2911 2908 2904 2901 2897 2894 2891 2886 2883
2999 2999 2999 2999 2999 2998 2999 2998 2997 2996 2995 2992 2990 2987 2984 2980 2975 2970 2966 2962 2958 2953 2949 2945 2941 2937 2934 2929 2925 2922 2918 2914 2910 2907 2904 2900 2896 2893 2889 2885 2881 2877 2873
2991 2991 2991 2992 2991 2991 2992 2992 2991 2990 2989 2987 2984 2981 2978 2974 2969 2965 2961 2957 2952 2949 2945 2940 2936 2932 2927 2923 2919 2915 2912 2907 2903 2899 2896 2892 2888 2884 2880 2876 2873 2869 2864
2983 2983 2983 2984 2984 2983 2984 2985 2985 2984 2983 2981 2979 2976 2972 2968 2964 2960 2955 2951 2947 2943 2939 2935 2930 2926 2921 2916 2912 2907 2904 2900 2896 2891 2888 2884 2881 2876 2872 2869 2864 2860 2855
2975 2975 2975 2976 2976 2976 2976 2977 2978 2977 2976 2974 2972 2969 2966 2962 2958 2954 2949 2945 2941 2937 2933 2928 2924 2920 2915 2910 2905 2900 2896 2892 2888 2884 2879 2876 2873 2869 2864 2860 2855 2850 2845
2966 2967 2967 2967 2967 2968 2968 2970 2971 2970 2969 2967 2965 2962 2959 2956 2952 2948 2944 2940 2935 2931 2927 2922 2918 2914 2909 2903 2898 2894 2890 2885 2880 2876 2871 2868 2864 2861 2856 2850 2845 2839 2835
2957 2957 2958 2959 2960 2960 2961 2963 2963 2963 2961 2959 2958 2955 2953 2949 2945 2941 2938 2933 2930 2926 2921 2917 2912 2907 2901 2896 2892 2887 2883 2878 2873 2868 2862 2858 2854 2850 2844 2838 2833 2827 2821